Total_Precipitation_Accumulation
0.00 0.00 0.00 0.00 0.00 0.00 0.01 0.04 0.08 0.10 0.13 0.12 0.15 0.19 0.20 0.24 0.40 0.73 0.28 0.13 0.13 0.07 0.01 0.01 0.02 0.03 0.04 0.06 0.09 0.11 0.11 0.12 0.10 0.11 0.11 0.11 0.11 0.11 0.12 0.13 0.14 0.20 0.22 0.21 0.21 0.23 0.22 0.19 0.14
0.00 0.00 0.00 0.00 0.00 0.00 0.01 0.04 0.06 0.08 0.10 0.13 0.15 0.18 0.15 0.15 0.17 0.13 0.09 0.07 0.07 0.04 0.02 0.01 0.02 0.03 0.03 0.04 0.06 0.09 0.12 0.14 0.15 0.17 0.13 0.11 0.12 0.12 0.12 0.13 0.15 0.18 0.19 0.17 0.16 0.15 0.13 0.10 0.08
0.00 0.00 0.00 0.00 0.00 0.00 0.04 0.06 0.06 0.07 0.08 0.11 0.17 0.24 0.24 0.17 0.15 0.11 0.08 0.08 0.07 0.05 0.04 0.01 0.01 0.02 0.03 0.03 0.05 0.10 0.14 0.14 0.16 0.18 0.16 0.12 0.10 0.10 0.12 0.16 0.20 0.22 0.21 0.22 0.22 0.18 0.11 0.07 0.07
0.00 0.00 0.00 0.00 0.00 0.01 0.04 0.05 0.05 0.07 0.09 0.10 0.14 0.24 0.27 0.18 0.11 0.11 0.11 0.11 0.07 0.04 0.02 0.02 0.03 0.03 0.04 0.04 0.05 0.09 0.15 0.16 0.16 0.16 0.17 0.16 0.13 0.11 0.16 0.23 0.26 0.26 0.26 0.30 0.35 0.28 0.19 0.11 0.08
0.00 0.00 0.00 0.00 0.00 0.01 0.02 0.03 0.05 0.06 0.08 0.08 0.14 0.29 0.37 0.24 0.19 0.17 0.14 0.16 0.12 0.07 0.03 0.05 0.06 0.05 0.06 0.06 0.08 0.13 0.17 0.19 0.21 0.20 0.19 0.20 0.15 0.12 0.17 0.26 0.30 0.31 0.30 0.30 0.27 0.20 0.15 0.12 0.10
0.00 0.00 0.00 0.00 0.00 0.01 0.01 0.02 0.03 0.05 0.09 0.09 0.12 0.28 0.46 0.32 0.34 0.30 0.23 0.30 0.27 0.17 0.08 0.08 0.09 0.09 0.10 0.12 0.15 0.18 0.18 0.20 0.21 0.21 0.22 0.21 0.15 0.13 0.17 0.25 0.32 0.38 0.33 0.25 0.19 0.14 0.11 0.10 0.10
0.00 0.00 0.00 0.00 0.00 0.01 0.02 0.02 0.03 0.05 0.10 0.12 0.15 0.31 0.49 0.43 0.37 0.33 0.34 0.41 0.38 0.29 0.21 0.17 0.14 0.12 0.13 0.15 0.16 0.19 0.20 0.21 0.21 0.19 0.19 0.19 0.17 0.14 0.17 0.24 0.29 0.27 0.20 0.17 0.14 0.12 0.09 0.07 0.05
0.00 0.00 0.00 0.00 0.00 0.01 0.02 0.03 0.04 0.05 0.10 0.13 0.15 0.32 0.63 0.53 0.37 0.33 0.44 0.49 0.60 0.70 0.78 0.54 0.25 0.17 0.14 0.14 0.21 0.27 0.28 0.28 0.25 0.21 0.17 0.16 0.15 0.17 0.19 0.21 0.20 0.16 0.10 0.07 0.07 0.06 0.05 0.04 0.04
0.00 0.00 0.00 0.00 0.01 0.02 0.02 0.04 0.05 0.06 0.09 0.08 0.10 0.25 0.46 0.42 0.33 0.37 0.56 0.68 0.76 1.00 1.18 0.67 0.38 0.30 0.27 0.25 0.23 0.28 0.32 0.33 0.28 0.24 0.25 0.24 0.26 0.33 0.33 0.22 0.20 0.14 0.09 0.07 0.07 0.06 0.05 0.04 0.05
0.00 0.00 0.00 0.00 0.01 0.02 0.03 0.05 0.06 0.07 0.09 0.14 0.15 0.18 0.24 0.33 0.41 0.42 0.67 0.98 1.00 0.96 0.90 0.82 0.60 0.44 0.39 0.36 0.39 0.40 0.38 0.38 0.32 0.42 0.36 0.42 0.72 0.78 0.59 0.51 0.36 0.24 0.17 0.14 0.13 0.12 0.09 0.06 0.08
0.00 0.00 0.00 0.00 0.01 0.01 0.02 0.04 0.06 0.15 0.17 0.21 0.22 0.27 0.33 0.44 0.52 0.53 0.72 0.99 1.27 1.35 0.97 0.92 0.80 0.67 0.61 0.64 0.69 0.66 0.62 0.64 0.62 0.76 0.64 0.72 0.84 0.76 0.71 0.69 0.53 0.46 0.37 0.37 0.37 0.26 0.20 0.17 0.20
0.00 0.00 0.00 0.00 0.00 0.00 0.01 0.02 0.05 0.13 0.27 0.30 0.31 0.42 0.48 0.57 0.67 0.72 0.83 1.01 1.28 1.44 1.23 0.99 1.00 0.98 1.02 1.05 1.02 0.93 0.95 0.94 0.91 1.00 0.83 0.93 1.01 0.98 0.89 0.92 0.84 0.82 0.76 0.75 0.64 0.53 0.42 0.38 0.32
0.00 0.00 0.00 0.00 0.01 0.02 0.03 0.07 0.08 0.10 0.13 0.19 0.24 0.42 0.53 0.55 0.74 0.94 1.08 1.30 1.46 1.44 1.25 1.14 1.22 1.22 1.25 1.34 1.44 1.38 1.32 1.37 1.39 1.39 1.18 1.19 1.15 1.10 1.07 1.05 1.07 1.06 1.11 1.07 0.99 0.84 0.68 0.56 0.47
0.00 0.00 0.00 0.00 0.01 0.03 0.03 0.08 0.07 0.06 0.06 0.10 0.12 0.27 0.49 0.62 0.73 1.04 1.20 1.51 1.58 1.48 1.34 1.24 1.33 1.32 1.41 1.54 1.65 1.62 1.55 1.71 1.91 2.02 1.85 1.63 1.55 1.45 1.38 1.38 1.37 1.25 1.28 1.31 1.26 1.09 0.96 0.78 0.66
0.00 0.00 0.00 0.00 0.00 0.00 0.00 0.04 0.05 0.04 0.05 0.07 0.10 0.20 0.40 0.63 0.76 1.13 1.38 1.61 1.57 1.51 1.47 1.45 1.33 1.43 1.55 1.75 1.80 1.74 1.80 1.95 2.10 2.15 2.18 1.94 1.70 1.74 1.66 1.65 1.65 1.46 1.43 1.54 1.55 1.39 1.19 1.02 0.86
0.00 0.00 0.00 0.00 0.00 0.00 0.00 0.04 0.09 0.07 0.08 0.07 0.11 0.18 0.33 0.64 0.80 1.13 1.42 1.48 1.39 1.46 1.74 1.75 1.40 1.51 1.61 1.70 1.82 1.80 1.92 2.10 2.25 2.23 2.29 2.12 1.91 1.85 1.89 1.85 1.77 1.70 1.71 1.86 1.95 1.72 1.52 1.40 1.27
0.00 0.00 0.00 0.01 0.00 0.00 0.01 0.06 0.10 0.15 0.14 0.12 0.14 0.25 0.38 0.58 0.79 1.05 1.35 1.66 1.69 1.80 2.13 1.98 1.63 1.64 1.74 1.87 2.00 2.03 2.14 2.42 2.61 2.67 2.54 2.23 2.09 2.13 2.20 2.20 2.17 2.12 2.12 2.14 2.05 2.06 1.85 1.84 1.73
0.00 0.00 0.01 0.02 0.01 0.01 0.02 0.05 0.10 0.18 0.18 0.22 0.25 0.39 0.51 0.57 0.69 0.87 1.26 1.64 1.82 2.22 2.69 2.36 1.89 1.88 2.05 2.05 2.07 2.28 2.50 2.79 3.03 2.95 2.76 2.60 2.59 2.58 2.61 2.56 2.58 2.61 2.64 2.47 2.36 2.29 2.05 1.90 1.83
0.00 0.00 0.01 0.02 0.02 0.03 0.07 0.11 0.15 0.18 0.21 0.25 0.33 0.46 0.44 0.48 0.62 0.81 1.20 1.57 1.95 2.32 2.52 2.48 2.33 2.34 2.48 2.57 2.44 2.61 2.92 3.23 3.47 3.41 3.32 3.23 3.19 3.16 3.14 3.11 3.03 2.88 2.78 2.63 2.44 2.28 2.13 1.95 1.75
0.00 0.00 0.01 0.03 0.03 0.02 0.09 0.20 0.26 0.29 0.30 0.34 0.40 0.52 0.53 0.58 0.69 0.89 1.25 1.60 2.00 2.33 2.34 2.46 2.61 2.68 2.57 2.84 3.08 3.36 3.69 3.86 4.12 4.37 4.44 4.32 4.09 3.85 3.69 3.55 3.28 2.92 2.75 2.65 2.47 2.27 2.11 1.89 1.70
0.00 0.00 0.01 0.03 0.04 0.06 0.13 0.27 0.34 0.40 0.38 0.43 0.50 0.65 0.67 0.75 0.84 1.00 1.31 1.54 1.81 2.19 2.40 2.55 2.81 2.92 2.90 3.29 3.79 4.27 4.57 4.60 4.63 4.69 4.77 4.74 4.33 3.97 3.69 3.37 3.13 2.87 2.67 2.52 2.44 2.29 2.16 1.93 1.71
0.00 0.00 0.01 0.03 0.05 0.10 0.12 0.30 0.44 0.47 0.50 0.49 0.55 0.57 0.64 0.64 0.71 0.89 1.16 1.52 1.64 1.94 2.17 2.35 2.70 3.08 3.41 3.83 4.36 4.90 5.17 5.33 5.25 4.93 4.69 4.41 4.02 3.63 3.20 2.96 2.91 2.71 2.50 2.32 2.13 1.97 1.88 1.79 1.64
0.00 0.00 0.01 0.03 0.05 0.10 0.11 0.24 0.49 0.54 0.53 0.56 0.59 0.58 0.58 0.55 0.57 0.70 0.85 1.13 1.42 1.67 1.90 2.19 2.49 2.93 3.56 4.27 4.88 5.34 5.65 5.60 5.18 4.70 4.14 3.72 3.38 3.09 2.83 2.61 2.60 2.49 2.24 1.99 1.73 1.54 1.46 1.44 1.42
0.00 0.00 0.02 0.05 0.07 0.16 0.13 0.23 0.52 0.68 0.75 0.74 0.64 0.60 0.58 0.57 0.58 0.60 0.69 0.90 1.12 1.31 1.59 1.95 2.38 2.73 3.29 3.94 4.55 4.94 5.20 5.12 4.71 4.09 3.56 3.19 2.84 2.55 2.31 2.06 1.90 1.78 1.59 1.45 1.32 1.19 1.15 1.15 1.17
0.00 0.01 0.05 0.14 0.16 0.18 0.17 0.29 0.62 0.76 0.82 0.75 0.63 0.63 0.62 0.57 0.58 0.61 0.63 0.74 0.89 1.06 1.28 1.57 1.96 2.45 2.83 3.22 3.77 3.95 3.98 3.79 3.40 3.13 2.90 2.53 2.19 1.92 1.69 1.49 1.37 1.29 1.18 1.09 1.05 1.02 0.99 0.93 0.90
0.00 0.01 0.05 0.13 0.18 0.22 0.31 0.51 0.83 0.83 0.87 0.77 0.68 0.63 0.59 0.57 0.53 0.62 0.64 0.72 0.88 1.03 1.22 1.39 1.65 2.01 2.31 2.47 2.65 2.67 2.57 2.48 2.34 2.15 1.93 1.70 1.49 1.37 1.26 1.11 1.01 0.96 0.94 0.90 0.87 0.83 0.78 0.72 0.67
0.01 0.01 0.03 0.06 0.09 0.19 0.41 0.69 1.04 1.16 1.06 0.87 0.75 0.67 0.64 0.63 0.62 0.65 0.64 0.71 0.84 0.93 1.10 1.20 1.24 1.37 1.48 1.55 1.61 1.66 1.66 1.57 1.53 1.44 1.29 1.18 1.03 0.90 0.84 0.78 0.75 0.72 0.67 0.62 0.57 0.54 0.55 0.60 0.60
0.01 0.01 0.02 0.06 0.13 0.23 0.42 0.73 1.01 1.23 1.11 0.96 0.85 0.76 0.70 0.71 0.71 0.68 0.65 0.67 0.68 0.72 0.81 0.94 1.00 1.00 0.98 1.02 1.02 1.09 1.09 1.02 0.95 0.88 0.81 0.72 0.64 0.57 0.54 0.50 0.50 0.51 0.53 0.50 0.46 0.45 0.43 0.45 0.50
0.02 0.02 0.04 0.06 0.09 0.20 0.45 0.84 1.04 1.35 1.33 1.14 0.96 0.79 0.75 0.81 0.78 0.71 0.68 0.61 0.57 0.58 0.59 0.65 0.75 0.83 0.86 0.85 0.83 0.79 0.77 0.73 0.68 0.64 0.60 0.51 0.45 0.41 0.40 0.41 0.39 0.40 0.45 0.47 0.47 0.47 0.45 0.42 0.42
0.04 0.05 0.06 0.15 0.14 0.15 0.44 1.10 1.25 1.38 1.42 1.29 1.16 0.98 0.82 0.77 0.73 0.65 0.60 0.56 0.50 0.49 0.48 0.49 0.54 0.57 0.64 0.67 0.70 0.69 0.62 0.57 0.54 0.50 0.49 0.47 0.42 0.39 0.39 0.40 0.38 0.36 0.35 0.38 0.41 0.41 0.40 0.39 0.37